Location: Lombard
(41.8800°N, 88.0080°W)
Time: 00:00:58
(UTC-06:00)

Altair - All Passes

Search period start: 06 February 2023 00:00
Search period end: 16 February 2023 00:00
Orbit: 1501 x 1683 km, 47.2° (Epoch: 05 February)

Date Brightness Start Highest point End Pass type
(mag) Time Alt. Az. Time Alt. Az. Time Alt. Az.
06 Feb - 00:02:40 10° WNW 00:12:44 79° SSW 00:22:54 10° SE visible
06 Feb - 02:08:19 10° WNW 02:16:36 30° SW 02:24:53 10° S night (unlit)
06 Feb - 15:24:39 10° SSE 15:28:48 14° ESE 15:33:01 10° E daylight
06 Feb - 17:22:40 10° SSW 17:31:44 53° SE 17:41:10 10° ENE visible
06 Feb - 19:26:37 10° WSW 19:36:19 77° NNW 19:46:24 10° ENE visible
06 Feb - 21:32:14 10° WNW 21:42:04 66° N 21:52:11 10° E visible
06 Feb - 23:37:26 10° WNW 23:47:31 83° SSW 23:57:42 10° ESE visible
07 Feb - 01:42:57 10° WNW 01:51:30 33° SW 02:00:05 10° S night (unlit)
07 Feb - 15:00:52 10° SE 15:03:48 12° ESE 15:06:44 10° ESE daylight
07 Feb - 16:57:41 10° SSW 17:06:36 49° SE 17:15:52 10° ENE daylight
07 Feb - 19:01:24 10° WSW 19:11:04 80° NNW 19:21:08 10° ENE visible
07 Feb - 21:06:59 10° WNW 21:16:46 65° N 21:26:51 10° E visible
07 Feb - 23:12:13 10° WNW 23:22:16 86° SSW 23:32:29 10° ESE visible
08 Feb - 01:17:36 10° WNW 01:26:23 36° SW 01:35:13 10° SSE night (unlit)
08 Feb - 16:32:44 10° SSW 16:41:29 45° SE 16:50:34 10° ENE daylight
08 Feb - 18:36:13 10° WSW 18:45:49 82° NNW 18:55:52 10° ENE visible
08 Feb - 20:41:44 10° W 20:51:28 65° N 21:01:32 10° E visible
08 Feb - 22:47:00 10° WNW 22:57:02 90° SSW 23:07:15 10° ESE visible
09 Feb - 00:52:16 10° WNW 01:01:15 39° SW 01:10:18 10° SSE night (unlit)
09 Feb - 16:07:49 10° SSW 16:16:23 41° SE 16:25:15 10° ENE daylight
09 Feb - 18:11:01 10° WSW 18:20:35 85° NNW 18:30:36 10° ENE visible
09 Feb - 20:16:28 10° W 20:26:10 64° N 20:36:13 10° E visible
09 Feb - 22:21:46 10° WNW 22:31:47 87° NNE 22:42:00 10° ESE visible
10 Feb - 00:26:58 10° WNW 00:36:07 42° SW 00:45:22 10° SSE night (unlit)
10 Feb - 15:42:55 10° SSW 15:51:17 38° SE 15:59:56 10° ENE daylight
10 Feb - 17:45:50 10° WSW 17:55:22 89° NNW 18:05:20 10° ENE visible
10 Feb - 19:51:14 10° W 20:00:52 64° N 20:10:53 10° E visible
10 Feb - 21:56:33 10° WNW 22:06:32 84° NNE 22:16:44 10° ESE visible
11 Feb - 00:01:41 10° WNW 00:10:58 45° SW 00:20:24 10° SSE visible
11 Feb - 02:12:11 10° WSW 02:13:53 10° WSW 02:15:35 10° SW night (unlit)
11 Feb - 15:18:04 10° SSW 15:26:12 35° SE 15:34:35 10° ENE daylight
11 Feb - 17:20:39 10° WSW 17:30:08 88° SSE 17:40:03 10° ENE daylight
11 Feb - 19:25:58 10° W 19:35:34 65° N 19:45:34 10° ENE visible
11 Feb - 21:31:21 10° WNW 21:41:16 81° NNE 21:51:27 10° ESE visible
11 Feb - 23:36:24 10° WNW 23:45:49 49° SW 23:55:23 10° SSE visible
12 Feb - 01:45:16 10° W 01:48:50 12° WSW 01:52:25 10° SW night (unlit)
12 Feb - 14:53:16 10° S 15:01:07 32° SE 15:09:13 10° ENE daylight
12 Feb - 16:55:30 10° WSW 17:04:56 84° SSE 17:14:48 10° ENE daylight
12 Feb - 19:00:43 10° W 19:10:17 65° N 19:20:15 10° ENE visible
12 Feb - 21:06:08 10° WNW 21:16:01 78° NNE 21:26:11 10° ESE visible
12 Feb - 23:11:09 10° WNW 23:20:40 52° SW 23:30:21 10° SSE visible
13 Feb - 01:19:07 10° W 01:23:47 14° WSW 01:28:30 10° SSW night (unlit)
13 Feb - 14:28:29 10° S 14:36:03 29° SE 14:43:50 10° ENE daylight
13 Feb - 16:30:22 10° SW 16:39:45 80° SSE 16:49:33 10° ENE daylight
13 Feb - 18:35:28 10° W 18:45:00 66° N 18:54:56 10° ENE visible
13 Feb - 20:40:55 10° WNW 20:50:44 76° NNE 21:00:53 10° ESE visible
13 Feb - 22:45:54 10° WNW 22:55:30 56° SW 23:05:17 10° SE visible
14 Feb - 00:53:15 10° W 00:58:44 16° WSW 01:04:17 10° SSW night (unlit)
14 Feb - 14:03:46 10° S 14:11:00 26° SE 14:18:24 10° ENE daylight
14 Feb - 16:05:14 10° SW 16:14:34 76° SSE 16:24:18 10° ENE daylight
14 Feb - 18:10:13 10° W 18:19:43 67° N 18:29:37 10° ENE visible
14 Feb - 20:15:42 10° WNW 20:25:28 73° NNE 20:35:35 10° ESE visible
14 Feb - 22:20:40 10° WNW 22:30:19 60° SW 22:40:12 10° SE visible
15 Feb - 00:27:32 10° W 00:33:40 18° SW 00:39:53 10° SSW night (unlit)
15 Feb - 13:39:06 10° S 13:45:57 24° SE 13:52:57 10° E daylight
15 Feb - 15:40:08 10° SW 15:49:24 72° SSE 15:59:02 10° ENE daylight
15 Feb - 17:44:58 10° W 17:54:26 68° N 18:04:19 10° ENE visible
15 Feb - 19:50:28 10° WNW 20:00:12 71° NNE 20:10:16 10° E visible
15 Feb - 21:55:26 10° WNW 22:05:08 64° SW 22:15:05 10° SE visible
